Date String (YYYY-MM-DD hh:mm:ss) UTC,Instrument flags,absolute air pressure of the measurement (hPa),sample flow rate (lpm),inlet stack bypass flow (lpm),air temperature of the measurement (°C),ambient temperature measured by the external sensor (°C),aerosol sample conditioner tube jacket temperature (°C),OPC LED temperature (°C),internal box temperature (°C),relative humidity of the measurement (%),span deviation,mass concentration of particles derived from Lorenz-Mie calculation of OPC scattering (μg/m³),mass concentration of particles derived from Lorenz-Mie calculation of OPC scattering (μg/m³),mass concentration of particles derived from Lorenz-Mie calculation of OPC scattering (μg/m³)
DateTimeUTC,F1_M11,P_M11,Q1_M11,Q2_M11,T1_M11,T2_M11,T3_M11,T4_M11,T5_M11,U1_M11,ZSPAN_M11,X2_M11,X0_M11,X1_M11
2023-09-30 09:00:00,SystemResetWarning,0828.3,5.00,000.00,028.5,026.4,000.0,037.1,030.1,19.2,0000.0,0006.40,0021.10,0004.65
2023-09-30 09:01:00,SystemResetWarning,0828.3,5.00,000.00,028.5,026.5,000.0,037.1,030.1,19.5,0000.0,0006.37,0020.91,0004.65
2023-09-30 09:02:00,SystemResetWarning,0828.4,5.00,000.00,028.5,026.7,000.0,037.1,030.2,20.1,0000.0,0006.38,0019.68,0004.65
2023-09-30 09:03:00,SystemResetWarning,0828.4,5.00,000.00,028.5,026.8,000.0,037.1,030.2,20.1,0000.0,0006.41,0019.86,0004.65
2023-09-30 09:04:00,SystemResetWarning,0828.4,5.00,000.00,028.5,026.9,000.0,037.1,030.2,20.1,0000.0,0006.49,0020.09,0004.64
2023-09-30 09:05:00,SystemResetWarning,0828.4,5.00,000.00,028.5,027.0,000.0,037.1,030.2,20.4,0000.0,0006.50,0019.63,0004.63
2023-09-30 09:06:00,SystemResetWarning,0828.4,5.01,000.00,028.6,027.1,000.0,037.1,030.3,20.6,0000.0,0006.52,0019.23,0004.64
2023-09-30 09:07:00,SystemResetWarning,0828.4,5.01,000.00,028.6,027.2,000.0,037.1,030.3,20.8,0000.0,0006.52,0019.36,0004.62
2023-09-30 09:08:00,SystemResetWarning,0828.4,5.01,000.00,028.6,027.2,000.0,037.1,030.3,20.8,0000.0,0006.47,0019.06,0004.60
2023-09-30 09:09:00,SystemResetWarning,0828.4,5.00,000.00,028.6,027.3,000.0,037.1,030.4,20.7,0000.0,0006.43,0017.94,0004.59
2023-09-30 09:10:00,SystemResetWarning,0828.4,4.99,000.00,028.6,027.3,000.0,037.1,030.4,20.7,0000.0,0006.38,0018.20,0004.57
2023-09-30 09:11:00,SystemResetWarning,0828.5,4.99,000.00,028.7,027.4,000.0,037.1,030.4,20.6,0000.0,0006.33,0017.69,0004.55
2023-09-30 09:12:00,SystemResetWarning,0828.5,5.01,000.00,028.7,027.4,000.0,037.1,030.4,20.7,0000.0,0006.23,0017.30,0004.53
2023-09-30 09:13:00,SystemResetWarning,0828.5,5.00,000.00,028.7,027.4,000.0,037.1,030.4,20.7,0000.0,0006.14,0017.21,0004.52
2023-09-30 09:14:00,SystemResetWarning,0828.6,5.01,000.00,028.7,027.5,000.0,037.1,030.4,20.8,0000.0,0006.13,0016.30,0004.51
2023-09-30 09:15:00,SystemResetWarning,0828.5,5.00,000.00,028.7,027.5,000.0,037.1,030.5,19.6,0000.0,0006.08,0015.05,0004.50
2023-09-30 09:16:00,SystemResetWarning,0828.6,4.99,000.00,028.8,027.5,000.0,037.1,030.5,19.8,0000.0,0006.06,0015.93,0004.49
2023-09-30 09:17:00,SystemResetWarning,0828.6,4.99,000.00,028.8,027.5,000.0,037.2,030.5,20.0,0000.0,0006.04,0016.69,0004.48
2023-09-30 09:18:00,SystemResetWarning,0828.5,5.00,000.00,028.8,027.5,000.0,037.2,030.5,19.3,0000.0,0006.03,0016.17,0004.48
2023-09-30 09:19:00,SystemResetWarning,0828.5,5.00,000.00,028.8,027.6,000.0,037.2,030.5,18.7,0000.0,0006.01,0016.14,0004.48
2023-09-30 09:20:00,SystemResetWarning,0828.5,5.01,000.00,028.8,027.6,000.0,037.2,030.5,18.6,0000.0,0005.97,0016.28,0004.48
2023-09-30 09:21:00,SystemResetWarning,0828.5,5.00,000.00,028.8,027.6,000.0,037.2,030.5,18.6,0000.0,0005.97,0016.14,0004.49
2023-09-30 09:22:00,SystemResetWarning,0828.5,4.99,000.00,028.9,027.6,000.0,037.2,030.6,18.8,0000.0,0006.03,0016.43,0004.49
2023-09-30 09:23:00,SystemResetWarning,0828.5,4.99,000.00,028.9,027.6,000.0,037.2,030.6,18.9,0000.0,0006.08,0016.84,0004.49
2023-09-30 09:24:00,SystemResetWarning,0828.5,5.00,000.00,028.9,027.6,000.0,037.2,030.6,19.0,0000.0,0006.12,0017.17,0004.49
2023-09-30 09:25:00,SystemResetWarning,0828.6,5.00,000.00,028.9,027.6,000.0,037.2,030.6,19.0,0000.0,0006.20,0016.97,0004.52
2023-09-30 09:26:00,SystemResetWarning,0828.5,5.00,000.00,028.9,027.6,000.0,037.3,030.6,19.0,0000.0,0006.22,0017.60,0004.53
2023-09-30 09:27:00,SystemResetWarning,0828.5,5.01,000.00,028.9,027.7,000.0,037.3,030.6,19.0,0000.0,0006.23,0017.57,0004.55
2023-09-30 09:28:00,SystemResetWarning,0828.6,5.01,000.00,028.9,027.7,000.0,037.3,030.6,18.9,0000.0,0006.24,0016.06,0004.54
2023-09-30 09:29:00,SystemResetWarning,0828.5,5.00,000.00,028.9,027.7,000.0,037.3,030.7,19.0,0000.0,0006.21,0015.61,0004.54
2023-09-30 09:30:00,SystemResetWarning,0828.6,5.00,000.00,029.0,027.7,000.0,037.3,030.7,19.2,0000.0,0006.22,0015.81,0004.55
2023-09-30 09:31:00,SystemResetWarning,0828.6,5.01,000.00,029.0,027.7,000.0,037.3,030.7,18.8,0000.0,0006.22,0016.06,0004.55
2023-09-30 09:32:00,SystemResetWarning,0828.6,4.99,000.00,029.0,027.7,000.0,037.4,030.7,18.7,0000.0,0006.25,0015.68,0004.56
2023-09-30 09:33:00,SystemResetWarning,0828.6,4.99,000.00,029.0,027.7,000.0,037.4,030.7,18.7,0000.0,0006.20,0016.77,0004.58
2023-09-30 09:34:00,SystemResetWarning,0828.6,5.00,000.00,029.0,027.7,000.0,037.4,030.7,18.6,0000.0,0006.29,0017.83,0004.59
2023-09-30 09:35:00,SystemResetWarning,0828.6,5.01,000.00,029.0,027.7,000.0,037.4,030.7,18.5,0000.0,0006.31,0018.21,0004.60
2023-09-30 09:36:00,SystemResetWarning,0828.6,5.01,000.00,029.0,027.7,000.0,037.4,030.7,18.3,0000.0,0006.34,0019.59,0004.59
2023-09-30 09:37:00,SystemResetWarning,0828.6,5.00,000.00,029.0,027.7,000.0,037.4,030.7,18.2,0000.0,0006.33,0019.48,0004.59
2023-09-30 09:38:00,SystemResetWarning,0828.6,5.00,000.00,029.0,027.7,000.0,037.4,030.7,18.0,0000.0,0006.32,0019.17,0004.59
2023-09-30 09:39:00,SystemResetWarning,0828.6,4.99,000.00,029.1,027.7,000.0,037.5,030.7,18.0,0000.0,0006.33,0019.56,0004.61
2023-09-30 09:40:00,SystemResetWarning,0828.6,5.00,000.00,029.1,027.7,000.0,037.5,030.7,17.9,0000.0,0006.43,0020.74,0004.64
2023-09-30 09:41:00,SystemResetWarning,0828.6,5.00,000.00,029.1,027.7,000.0,037.5,030.7,17.7,0000.0,0006.51,0021.42,0004.66
2023-09-30 09:42:00,SystemResetWarning,0828.6,5.00,000.00,029.1,027.7,000.0,037.5,030.7,17.8,0000.4,0006.56,0022.35,0004.68
2023-09-30 09:43:00,SystemResetWarning,0828.6,5.00,000.00,029.1,027.7,000.0,037.5,030.8,18.0,0000.0,0006.60,0023.58,0004.69
2023-09-30 09:44:00,SystemResetWarning,0828.7,5.00,000.00,029.1,027.7,000.0,037.5,030.8,18.2,0000.0,0006.71,0022.70,0004.69
2023-09-30 09:45:00,SystemResetWarning,0828.7,5.00,000.00,029.1,027.7,000.0,037.5,030.8,18.7,0000.0,0006.71,0022.60,0004.72
2023-09-30 09:46:00,SystemResetWarning,0828.7,5.00,000.00,029.1,027.8,000.0,037.5,030.8,18.8,0000.0,0006.74,0023.00,0004.75
2023-09-30 09:47:00,SystemResetWarning,0828.7,5.01,000.00,029.1,027.8,000.0,037.5,030.8,18.9,0000.0,0006.72,0022.83,0004.76
2023-09-30 09:48:00,SystemResetWarning,0828.7,5.00,000.00,029.1,027.8,000.0,037.5,030.8,19.0,0000.0,0006.78,0023.01,0004.77
2023-09-30 09:49:00,SystemResetWarning,0828.7,5.00,000.00,029.1,027.8,000.0,037.5,030.8,19.0,0000.0,0006.81,0023.13,0004.78
2023-09-30 09:50:00,SystemResetWarning,0828.7,5.00,000.00,029.1,027.8,000.0,037.5,030.8,19.1,0000.0,0006.82,0022.88,0004.78
2023-09-30 09:51:00,SystemResetWarning,0828.7,4.99,000.00,029.1,027.8,000.0,037.5,030.8,19.5,0000.0,0006.77,0021.66,0004.78
2023-09-30 09:52:00,SystemResetWarning,0828.7,5.00,000.00,029.1,027.8,000.0,037.5,030.8,19.4,0000.0,0006.70,0020.70,0004.77
2023-09-30 09:53:00,SystemResetWarning,0828.7,5.00,000.00,029.1,027.8,000.0,037.6,030.8,19.5,0000.0,0006.75,0019.89,0004.78
2023-09-30 09:54:00,SystemResetWarning,0828.7,5.00,000.00,029.1,027.8,000.0,037.6,030.8,19.5,0000.0,0006.70,0019.20,0004.78
2023-09-30 09:55:00,SystemResetWarning,0828.7,5.00,000.00,029.1,027.8,000.0,037.6,030.8,19.4,0000.0,0006.59,0018.72,0004.76
2023-09-30 09:56:00,SystemResetWarning,0828.8,5.01,000.00,029.1,027.8,000.0,037.6,030.8,19.6,0000.0,0006.50,0017.55,0004.73
2023-09-30 09:57:00,SystemResetWarning,0828.8,5.01,000.00,029.1,027.8,000.0,037.6,030.8,19.5,0000.0,0006.47,0016.98,0004.70
2023-09-30 09:58:00,SystemResetWarning,0828.8,5.00,000.00,029.2,027.8,000.0,037.6,030.8,19.6,0000.0,0006.42,0016.25,0004.68
2023-09-30 09:59:00,SystemResetWarning,0828.8,4.99,000.00,029.2,027.8,000.0,037.6,030.8,19.8,0000.0,0006.37,0016.13,0004.66
